Flag for Germany Weather past 2 weeks in Beckum, North Rhine-Westphalia, Germany

Now
61 °F

Clear.


Feels Like: 61 °F
Forecast: 63 / 84 °F
Wind: 3 mph from East

Location: Muenster / Osnabrueck

Current Time: Aug 1, 2014 at 3:59:35 AM

Latest Report: Aug 1, 2014 at 3:20 AM


Visibility: 10 mi

Pressure: 29.89 "Hg

Humidity: 88%

Dew point: 57 °F

Location of BeckumLocation

Historic Weather in Beckum — Graph

°F

Beckum temperature yesterday

Maximum temperature yesterday: 77 °F (at 4:50 PM)
Minimum temperature yesterday: 55 °F (at 4:20 AM)
Average temperature yesterday: 66 °F

Past Weeks' High & Low Weather Summary

 TemperatureHumidityPressure
High93 °F (Jul 19, 2:20 PM)100% (Jul 17, 2:50 AM)30.18 "Hg (Jul 17, 2:50 AM)
Low55 °F (Jul 17, 4:50 AM)19% (Jul 19, 3:20 PM)29.74 "Hg (Jul 20, 4:50 AM)
Average71 °F73%29.95 "Hg
* Reported Jul 17 2:20 AM — Aug 1 2:50 AM, Beckum, Weather by CustomWeather, © 2014

Note: Actual official high and low records may vary slightly from our data, if they occured in-between our weather recording intervals... More about our weather records

Advertising

Beckum weather history for previous 24 hours

 ConditionsComfort  
Time TempWeatherWind HumidityBarometerVisibility
2:50 AM
Aug 1
63 °FClear.3 mph83%29.89 "Hg10 mi
2:20 AM63 °FClear.3 mph83%29.92 "Hg10 mi
1:50 AM63 °FClear.5 mph83%29.92 "Hg10 mi
1:20 AM63 °FClear.2 mph83%29.92 "Hg10 mi
12:50 AM61 °FClear.1 mph88%29.92 "Hg10 mi
12:20 AM63 °FClear.3 mph83%29.92 "Hg10 mi
11:50 PM
Jul 31
63 °FClear.2 mph83%29.92 "Hg10 mi
11:20 PM63 °FClear.2 mph83%29.92 "Hg10 mi
10:50 PM63 °FClear.2 mph88%29.92 "Hg10 mi
10:20 PM64 °FSunny.1 mph78%29.92 "Hg10 mi
9:50 PM64 °FSunny.1 mph83%29.92 "Hg10 mi
9:20 PM66 °FSunny.1 mph78%29.92 "Hg10 mi
8:50 PM68 °FSunny.2 mph69%29.92 "Hg10 mi
8:20 PM73 °FSunny.2 mph57%29.92 "Hg10 mi
7:50 PM75 °FSunny.2 mph47%29.92 "Hg10 mi
7:20 PM75 °FSunny.2 mph47%29.92 "Hg10 mi
6:50 PM75 °FSunny.5 mph44%29.92 "Hg10 mi
6:20 PM75 °FSunny.2 mph47%29.95 "Hg10 mi
5:50 PM75 °FPassing clouds.5 mph44%29.95 "HgN/A
5:20 PM75 °FScattered clouds.3 mph47%29.95 "HgN/A
4:50 PM77 °FScattered clouds.2 mph44%29.95 "HgN/A
4:20 PM75 °FScattered clouds.5 mph44%29.95 "HgN/A
3:50 PM75 °FScattered clouds.5 mph47%29.95 "HgN/A
3:20 PM75 °FScattered clouds.5 mph47%29.98 "HgN/A
2:50 PM73 °FScattered clouds.2 mph50%29.98 "HgN/A
2:20 PM73 °FPassing clouds.5 mph50%29.98 "HgN/A
1:50 PM72 °FPassing clouds.3 mph53%29.98 "HgN/A
1:20 PM72 °FScattered clouds.3 mph61%29.98 "HgN/A
12:50 PM70 °FScattered clouds.3 mph57%29.98 "HgN/A
12:20 PM72 °FScattered clouds.3 mph57%29.98 "HgN/A
11:50 AM68 °FScattered clouds.5 mph64%30.01 "HgN/A
11:20 AM68 °FPassing clouds.3 mph64%30.01 "HgN/A
10:50 AM68 °FPassing clouds.3 mph69%30.01 "HgN/A
10:20 AM66 °FPassing clouds.5 mph73%30.01 "HgN/A
9:50 AM64 °FPassing clouds.3 mph73%30.01 "HgN/A
9:20 AM63 °FPassing clouds.5 mph77%30.01 "HgN/A
8:50 AM63 °FPassing clouds.3 mph77%30.01 "HgN/A
8:20 AM61 °FSunny.3 mph88%30.01 "Hg10 mi
7:50 AM59 °FClear.3 mph94%30.01 "Hg6 mi
7:20 AM59 °FClear.3 mph88%30.01 "Hg6 mi
6:50 AM57 °FFog.2 mph94%29.98 "Hg5 mi
6:20 AM57 °FSleet. Fog.3 mph100%29.98 "HgN/A
5:50 AM55 °FFog.3 mph100%29.98 "HgN/A
5:20 AM55 °FClear.2 mph94%29.98 "Hg10 mi
4:50 AM55 °FClear.3 mph100%29.98 "Hg10 mi
4:20 AM55 °FClear.3 mph100%29.98 "Hg10 mi
3:50 AM57 °FClear.2 mph94%29.98 "Hg10 mi
3:20 AM57 °FClear.2 mph94%29.98 "Hg10 mi
Weather by CustomWeather, © 2014

See weather overviewHow to use our weather pages